DW5288 Weather Reports


time (UTC)temp
C
wind
direction
speed
KPH
gust
KPH
rain 1hr
cm
rain 24hr
cm
rain mn
cm
humidity
%
barometer
mb
20260906203028 33 190 30.6 41.8 0.00 0.00 0.00 44 1003.6
20260906201536 33 181 32.2 46.7 0.00 0.00 0.00 44 1003.9
20260906200019 33 160 32.2 46.7 0.00 0.00 0.00 44 1003.9
20260906194514 32 150 32.2 46.7 0.00 0.00 0.00 45 1004.2
20260906193020 32 174 27.4 43.5 0.00 0.00 0.00 49 1004.3
20260906191507 32 145 33.8 48.3 0.00 0.00 0.00 49 1004.5
20260906190005 32 177 27.4 45.1 0.00 0.00 0.00 49 1004.8
20260906184504 31 157 30.6 40.2 0.00 0.00 0.00 49 1004.8
20260906183102 31 158 22.5 35.4 0.00 0.00 0.00 51 1005.0
20260906181559 31 153 32.2 45.1 0.00 0.00 0.00 51 1005.4
20260906180115 30 136 27.4 43.5 0.00 0.00 0.00 53 1005.8
20260906174558 30 154 30.6 45.1 0.00 0.00 0.00 56 1006.1
20260906173047 29 123 29.0 45.1 0.00 0.00 0.00 56 1006.6
20260906171543 28 144 27.4 45.1 0.00 0.00 0.00 58 1006.6
20260906170038 27 137 32.2 43.5 0.00 0.00 0.00 64 1006.8
20260906164536 26 126 32.2 43.5 0.00 0.00 0.00 64 1006.8
20260906163033 25 119 30.6 43.5 0.00 0.00 0.00 68 1006.8
20260906161532 25 143 27.4 38.6 0.00 0.00 0.00 71 1006.5
20260906160035 25 127 24.1 41.8 0.00 0.00 0.00 73 1006.4
20260906154534 26 131 20.9 33.8 0.00 0.00 0.00 68 1007.1
20260906153035 26 88 19.3 29.0 0.00 0.00 0.00 67 1007.2
20260906151531 26 110 19.3 29.0 0.00 0.00 0.00 70 1007.1
20260906150025 25 104 14.5 24.1 0.00 0.00 0.00 72 1006.7
20260906144521 24 86 16.1 22.5 0.00 0.00 0.00 73 1006.8
20260906143027 24 81 17.7 24.1 0.00 0.00 0.00 73 1006.7
20260906141516 23 103 11.3 14.5 0.00 0.00 0.00 75 1006.3
20260906140020 23 154 8.0 14.5 0.00 0.00 0.00 76 1005.9
20260906134511 23 148 6.4 14.5 0.00 0.00 0.00 77 1005.6
20260906133021 22 158 11.3 17.7 0.00 0.00 0.00 78 1005.5
20260906131509 22 136 12.9 17.7 0.00 0.00 0.00 80 1005.4
20260906130003 21 135 9.7 12.9 0.00 0.00 0.00 80 1005.3
20260906124558 21 138 9.7 11.3 0.00 0.00 0.00 79 1005.1
20260906123059 21 125 6.4 14.5 0.00 0.00 0.00 79 1004.9
20260906121555 21 140 9.7 12.9 0.00 0.00 0.00 78 1004.8
20260906120057 22 156 9.7 16.1 0.00 0.00 0.00 78 1004.6
20260906114551 22 144 11.3 14.5 0.00 0.00 0.00 78 1004.6
20260906113049 22 143 9.7 14.5 0.00 0.00 0.00 78 1004.5
20260906111652 22 152 8.0 14.5 0.00 0.00 0.00 77 1004.4
20260906110053 22 135 9.7 16.1 0.00 0.00 0.00 77 1004.3
20260906104546 22 129 8.0 12.9 0.00 0.00 0.00 76 1004.2
20260906103100 22 124 4.8 11.3 0.00 0.00 0.00 76 1004.1
20260906101544 22 137 6.4 14.5 0.00 0.00 0.00 75 1004.0
20260906100043 22 139 11.3 16.1 0.00 0.00 0.00 75 1004.0
20260906094543 22 154 14.5 19.3 0.00 0.00 0.00 75 1003.9
20260906093041 22 143 11.3 19.3 0.00 0.00 0.00 76 1003.8
20260906091540 22 138 14.5 20.9 0.00 0.00 0.00 76 1003.9
20260906090057 22 133 14.5 20.9 0.00 0.00 0.00 76 1003.8
20260906084540 22 144 14.5 19.3 0.00 0.00 0.00 75 1003.8
20260906083039 23 144 12.9 19.3 0.00 0.00 0.00 74 1004.0
20260906081536 23 143 14.5 22.5 0.00 0.00 0.00 74 1004.0
20260906080035 23 154 14.5 17.7 0.00 0.00 0.00 73 1004.2
20260906074533 23 150 11.3 16.1 0.00 0.00 0.00 71 1004.3
20260906073030 23 159 14.5 19.3 0.00 0.00 0.00 69 1004.3
20260906071528 23 177 14.5 20.9 0.00 0.00 0.00 67 1004.3
20260906070035 24 170 14.5 22.5 0.00 0.00 0.00 66 1004.3
20260906064523 24 158 12.9 19.3 0.00 0.00 0.00 64 1004.6
20260906063038 25 175 12.9 19.3 0.00 0.00 0.00 64 1004.5
20260906061519 25 189 9.7 16.1 0.00 0.00 0.00 63 1004.3
20260906060017 25 222 14.5 24.1 0.00 0.00 0.00 63 1004.3
20260906054514 25 212 9.7 14.5 0.00 0.05 0.00 65 1004.4
20260906053011 25 200 12.9 19.3 0.00 0.05 0.00 65 1004.2
20260906051507 25 202 11.3 22.5 0.00 0.05 0.00 67 1003.7
20260906050005 25 162 6.4 12.9 0.00 0.05 0.00 68 1003.8
20260906044503 26 180 4.8 8.0 0.00 0.10 0.05 68 1003.7
20260906043002 26 177 4.8 11.3 0.00 0.10 0.05 68 1003.5
20260906041502 26 131 8.0 12.9 0.00 0.10 0.05 67 1003.6
20260906040004 26 135 11.3 17.7 0.00 0.10 0.05 66 1003.8
20260906034501 27 144 14.5 19.3 0.00 0.10 0.05 65 1003.8
20260906033102 27 156 14.5 20.9 0.00 0.10 0.05 64 1003.9
20260906031601 27 149 17.7 24.1 0.00 0.10 0.05 63 1003.8
20260906030100 27 176 19.3 32.2 0.00 0.10 0.05 63 1003.9
20260906024559 27 136 6.4 11.3 0.00 0.10 0.05 62 1004.3
20260906023057 28 155 8.0 12.9 0.00 0.10 0.05 60 1003.5
20260906021558 28 149 11.3 16.1 0.00 0.10 0.05 58 1003.1
20260906020105 28 128 12.9 16.1 0.00 0.10 0.05 57 1002.7
20260906014556 29 139 12.9 17.7 0.00 0.10 0.05 55 1002.5
20260906013105 30 146 12.9 19.3 0.00 0.10 0.05 55 1002.1
20260906011555 30 137 12.9 20.9 0.00 0.10 0.05 54 1002.0
20260906010055 30 142 12.9 17.7 0.00 0.10 0.05 53 1002.0
20260906004558 31 133 12.9 19.3 0.00 0.10 0.05 52 1002.1
20260906003052 31 147 12.9 20.9 0.00 0.10 0.05 50 1001.9
20260906001553 31 155 17.7 22.5 0.00 0.10 0.05 50 1001.9
20260905234608 32 147 14.5 24.1 0.00 0.10 0.05 49 1001.9
20260905233050 32 146 16.1 24.1 0.00 0.10 0.05 49 1002.0
20260905231550 32 150 14.5 25.7 0.00 0.10 0.05 49 1002.1
20260905230054 32 166 19.3 29.0 0.00 0.10 0.05 48 1002.0
20260905224551 32 152 19.3 30.6 0.00 0.10 0.05 47 1002.0
20260905223051 33 196 17.7 30.6 0.00 0.10 0.05 44 1001.7
20260905221551 33 146 24.1 35.4 0.00 0.10 0.05 44 1001.8
20260905220045 34 177 24.1 35.4 0.00 0.10 0.05 45 1001.8
20260905214542 33 168 24.1 35.4 0.00 0.10 0.05 46 1002.0
20260905213039 33 179 20.9 32.2 0.00 0.10 0.05 47 1002.1
20260905211539 33 159 22.5 33.8 0.00 0.10 0.05 46 1002.4
20260905210046 33 165 20.9 32.2 0.00 0.10 0.05 50 1002.5
20260905204535 33 160 24.1 33.8 0.00 0.10 0.05 50 1002.8